This is the latest recevied weather packets stored in our database for station/object OE-11121. If no packets are shown the sender has not sent any weather packets the latest 10 day(s).
| Time | Temp. | Humidity | Pressure | Rain* | Wind** | Luminosity | Snow |
|---|---|---|---|---|---|---|---|
| 1787691932 | 15° C | 91% | 1017.7 hPa | 0 mm | - | 0 W/m² | - |
| 1787691333 | 15° C | 91% | 1017.6 hPa | 0 mm | - | 0 W/m² | - |
| 1787690506 | 15° C | 92% | 1017.6 hPa | 0 mm | - | 0 W/m² | - |
| 1787690133 | 15° C | 91% | 1017.4 hPa | 0 mm | - | 0 W/m² | - |
| 1787689533 | 15.56° C | 92% | 1017.4 hPa | 0 mm | - | 0 W/m² | - |
| 1787688706 | 15.56° C | 91% | 1017.3 hPa | 0 mm | - | 0 W/m² | - |
| 1787688332 | 15.56° C | 91% | 1017.2 hPa | 0 mm | - | 0 W/m² | - |
| 1787687733 | 15.56° C | 91% | 1017.1 hPa | 0 mm | - | 0 W/m² | - |
| 1787686906 | 15.56° C | 91% | 1017.1 hPa | 0 mm | - | 0 W/m² | - |
| 1787686532 | 15.56° C | 90% | 1016.9 hPa | 0 mm | - | 0 W/m² | - |
| 1787685933 | 16.11° C | 90% | 1016.8 hPa | 0 mm | - | 0 W/m² | - |
| 1787685106 | 16.11° C | 89% | 1016.6 hPa | 0 mm | - | 0 W/m² | - |
| 1787684733 | 16.67° C | 89% | 1016.4 hPa | 0 mm | - | 0 W/m² | - |
| 1787684133 | 16.67° C | 87% | 1016.1 hPa | 0 mm | - | 0 W/m² | - |
| 1787683306 | 17.22° C | 84% | 1015.9 hPa | 0 mm | - | 0 W/m² | - |
| 1787682333 | 17.78° C | 81% | 1015.7 hPa | 0 mm | - | 0 W/m² | - |
| 1787681506 | 17.78° C | 81% | 1015.5 hPa | 0 mm | - | 12 W/m² | - |
| 1787681133 | 17.78° C | 82% | 1015.4 hPa | 0 mm | - | 12 W/m² | - |
| 1787680533 | 17.78° C | 83% | 1015.3 hPa | 0 mm | - | 12 W/m² | - |
| 1787679704 | 17.78° C | 83% | 1015.1 hPa | 0 mm | - | 12 W/m² | - |
| 1787679331 | 18.33° C | 82% | 1015.1 hPa | 0 mm | - | 12 W/m² | - |
| 1787678731 | 18.33° C | 78% | 1014.9 hPa | 0 mm | - | 12 W/m² | - |
| 1787677904 | 18.33° C | 77% | 1014.9 hPa | 0 mm | - | 12 W/m² | - |
| 1787677531 | 18.33° C | 77% | 1014.8 hPa | 0 mm | - | 24 W/m² | - |
| 1787676930 | 18.89° C | 78% | 1014.4 hPa | 0 mm | - | 48 W/m² | - |
* Rain latest hour (hover to see other rain measurements)
** Current wind speed in m/s (hover to see current wind gust speed)